Amateur Radio Satellites - All Passes

Search period start: 23 May 2013 05:38
Search period end: 24 May 2013 05:38
Location: Castro Valley, 37.6940°N, 122.0850°W

Satellite Date Start Highest point End Downlink Frequencies (MHz)
Time Altitude Azimuth
Gurwin Techsat 1B 23 May 05:39:53 05:44:37 34° 291° (WNW) 05:49:20 435.225 FM
Saudisat 1A 23 May 05:46:08 05:50:38 64° 118° (ESE) 05:55:12 436.775 MHz
Uosat F 23 May 05:57:27 06:00:50 18° 295° (WNW) 06:04:12 435.120 FM
AO-7 23 May 05:58:50 06:07:08 63° 104° (ESE) 06:15:23 29.400 - 29.500 MHz
PCSat 23 May 06:14:23 06:16:34 13° 102° (ESE) 06:18:46 145.825 MHz
STRAND 1 23 May 06:25:26 06:30:23 56° 73° (ENE) 06:35:23 ?
Sapphire 23 May 06:44:59 06:49:15 24° 107° (ESE) 06:53:33 437.095 MHz 1200 baud AX-25 AFSK
KITSAT 1 23 May 06:45:21 06:51:10 21° 39° (NE) 06:56:58 435.175 FM
Hamsat 23 May 07:10:43 07:13:22 16° 93° (E) 07:16:01 145.90 MHz
Saudisat 1A 23 May 07:27:54 07:30:46 16° 315° (NW) 07:33:39 436.775 MHz
AO-7 23 May 07:52:31 07:59:19 29° 302° (WNW) 08:06:08 29.400 - 29.500 MHz
PCSat 23 May 07:53:53 07:59:16 76° 298° (WNW) 08:04:43 145.825 MHz
STRAND 1 23 May 08:07:02 08:09:55 15° 268° (W) 08:12:49 ?
ISS 23 May 08:19:00 08:21:16 17° 24° (NNE) 08:23:32 145.800 FM
Sapphire 23 May 08:27:19 08:32:24 42° 303° (WNW) 08:37:33 437.095 MHz 1200 baud AX-25 AFSK
KITSAT 1 23 May 08:39:40 08:47:51 83° 61° (ENE) 08:55:58 435.175 FM
Hamsat 23 May 08:45:29 08:49:35 41° 287° (WNW) 08:53:42 145.90 MHz
JAS-1B 23 May 08:56:37 09:02:36 74° 103° (ESE) 09:08:14 435.800 - 435.900 CW/SSB
SO-50 23 May 09:00:53 09:05:42 86° 301° (WNW) 09:10:28 436.795 FM
SO-67 23 May 09:04:53 09:08:26 63° 284° (WNW) 09:11:58 435.3500 MHz FM
HO-68 23 May 09:17:53 09:22:21 17° 92° (E) 09:26:48 435.675 MHz FM
PCSat 23 May 09:41:31 09:43:38 12° 317° (NW) 09:45:45 145.825 MHz
ISS 23 May 09:54:58 09:58:20 77° 221° (SW) 10:01:41 145.800 FM
UOSAT-12 23 May 10:22:04 10:23:31 11° 107° (ESE) 10:24:58 437.025 FM, 437.400 FM
KITSAT 1 23 May 10:37:03 10:42:14 19° 258° (WSW) 10:47:25 435.175 FM
Oscar 11 23 May 10:44:53 10:49:10 53° 100° (E) 10:53:26 145.825 FM, Beacon 2401.500 USB
SO-50 23 May 10:44:59 10:47:00 13° 318° (NW) 10:49:01 436.795 FM
JAS-1B 23 May 10:49:37 10:52:25 14° 303° (WNW) 10:55:08 435.800 - 435.900 CW/SSB
JAS-2 23 May 10:57:24 11:04:16 80° 103° (ESE) 11:10:14 435.800 - 435.900 CW/SSB, 435.910 FM
MaSat-1 23 May 10:59:43 11:01:26 14° 52° (NE) 11:03:00 437.345 MHz
HO-68 23 May 11:03:30 11:10:40 77° 288° (WNW) 11:17:49 435.675 MHz FM
OPAL 23 May 11:23:25 11:28:18 54° 102° (ESE) 11:33:08 ?
PANSAT 23 May 11:24:52 11:26:51 14° 165° (SSE) 11:28:49 not established
UOSAT-12 23 May 11:58:37 12:03:05 66° 302° (WNW) 12:07:37 437.025 FM, 437.400 FM
Oscar 11 23 May 12:22:54 12:24:55 13° 295° (WNW) 12:26:56 145.825 FM, Beacon 2401.500 USB
MaSat-1 23 May 12:41:23 12:43:23 17° 257° (WSW) 12:45:13 437.345 MHz
JAS-2 23 May 12:44:16 12:48:15 17° 303° (WNW) 12:52:00 435.800 - 435.900 CW/SSB, 435.910 FM
HO-68 23 May 12:53:52 12:57:12 14° 306° (NW) 13:00:32 435.675 MHz FM
Oscar 16 23 May 13:01:18 13:05:04 21° 65° (ENE) 13:08:52 437.025 USB, Beacon 2401.1428
OPAL 23 May 13:03:36 13:06:45 17° 298° (WNW) 13:09:52 ?
PANSAT 23 May 13:03:39 13:06:36 21° 178° (S) 13:09:33 not established
AO-27 23 May 13:12:21 13:15:56 19° 64° (ENE) 13:19:31 436.795 MHz FM
ITAMSAT 1 23 May 13:18:30 13:22:20 22° 65° (ENE) 13:26:11 435.822 SSB
Uribyol 2 23 May 13:57:54 14:02:55 53° 72° (ENE) 14:07:58 436.500 FM
AO-Echo 23 May 13:59:21 14:02:12 16° 65° (ENE) 14:05:01 ?
Oscar 19 23 May 13:59:22 14:04:29 63° 74° (ENE) 14:09:39 437.125 CW, 437.150 USB
Saudisat 1A 23 May 14:15:37 14:19:41 31° 51° (NE) 14:23:40 436.775 MHz
Oscar 16 23 May 14:39:08 14:44:05 45° 261° (W) 14:49:05 437.025 USB, Beacon 2401.1428
PANSAT 23 May 14:43:48 14:46:24 17° 190° (S) 14:48:58 not established
AO-27 23 May 14:50:04 14:55:03 49° 260° (W) 15:00:05 436.795 MHz FM
ITAMSAT 1 23 May 14:56:37 15:01:31 43° 261° (W) 15:06:27 435.822 SSB
TMSAT-1 23 May 14:59:13 15:02:15 16° 63° (ENE) 15:05:17 436.925 FM
AO-7 23 May 15:08:18 15:12:23 15° 50° (NE) 15:16:27 29.400 - 29.500 MHz
Gurwin Techsat 1B 23 May 15:19:27 15:24:15 36° 70° (ENE) 15:29:04 435.225 FM
Uosat F 23 May 15:29:06 15:33:58 55° 73° (ENE) 15:38:52 435.120 FM
Sapphire 23 May 15:34:53 15:38:11 16° 46° (NE) 15:41:28 437.095 MHz 1200 baud AX-25 AFSK
AO-Echo 23 May 15:35:51 15:40:36 51° 260° (W) 15:45:15 ?
Uribyol 2 23 May 15:39:30 15:42:42 17° 268° (W) 15:45:57 436.500 FM
Oscar 19 23 May 15:41:37 15:44:15 14° 269° (W) 15:46:53 437.125 CW, 437.150 USB
Saudisat 1A 23 May 15:55:30 15:59:15 26° 248° (WSW) 16:02:55 436.775 MHz
RS-15 23 May 16:00:43 16:12:13 52° 110° (ESE) 16:23:16 29.354 - 29.394 USB, Beacon 29.352 USB
TMSAT-1 23 May 16:36:23 16:41:37 64° 259° (W) 16:46:53 436.925 FM
PCSat 23 May 16:43:49 16:49:11 57° 60° (ENE) 16:54:30 145.825 MHz
AO-7 23 May 16:55:29 17:03:41 71° 69° (ENE) 17:11:57 29.400 - 29.500 MHz
Gurwin Techsat 1B 23 May 16:59:56 17:04:16 25° 265° (W) 17:08:38 435.225 FM
Uosat F 23 May 17:10:19 17:13:06 15° 268° (W) 17:15:53 435.120 FM
Sapphire 23 May 17:16:49 17:22:15 79° 245° (WSW) 17:27:39 437.095 MHz 1200 baud AX-25 AFSK
SO-50 23 May 17:35:04 17:39:29 49° 55° (NE) 17:43:49 436.795 FM
JAS-1B 23 May 17:53:53 17:56:12 11° 55° (NE) 17:58:26 435.800 - 435.900 CW/SSB
RS-15 23 May 18:13:19 18:24:45 48° 311° (NW) 18:35:48 29.354 - 29.394 USB, Beacon 29.352 USB
PCSat 23 May 18:28:37 18:32:05 18° 255° (WSW) 18:35:33 145.825 MHz
STRAND 1 23 May 18:38:47 18:42:45 22° 95° (E) 18:46:42 ?
AO-7 23 May 18:50:53 18:57:03 23° 266° (W) 19:03:17 29.400 - 29.500 MHz
SO-50 23 May 19:17:00 19:19:39 16° 251° (WSW) 19:22:17 436.795 FM
JAS-1B 23 May 19:36:28 19:45:31 60° 71° (ENE) 19:53:15 435.800 - 435.900 CW/SSB
Hamsat 23 May 19:37:24 19:41:35 72° 259° (W) 19:45:50 145.90 MHz
SO-67 23 May 19:39:04 19:42:16 32° 73° (ENE) 19:45:29 435.3500 MHz FM
HO-68 23 May 19:47:52 19:50:10 12° 52° (NE) 19:52:28 435.675 MHz FM
STRAND 1 23 May 20:17:17 20:22:03 40° 290° (WNW) 20:26:48 ?
UOSAT-12 23 May 20:30:02 20:34:36 61° 57° (ENE) 20:39:09 437.025 FM, 437.400 FM
RS-15 23 May 20:33:41 20:41:05 18° 342° (NNW) 20:48:19 29.354 - 29.394 USB, Beacon 29.352 USB
JAS-2 23 May 21:05:39 21:12:25 35° 65° (ENE) 21:19:15 435.800 - 435.900 CW/SSB, 435.910 FM
SO-67 23 May 21:14:11 21:15:49 13° 268° (W) 21:17:27 435.3500 MHz FM
KITSAT 1 23 May 21:16:27 21:19:14 12° 99° (E) 21:22:00 435.175 FM
JAS-1B 23 May 21:28:22 21:36:09 30° 264° (W) 21:43:07 435.800 - 435.900 CW/SSB
HO-68 23 May 21:29:29 21:36:32 68° 71° (ENE) 21:43:37 435.675 MHz FM
Oscar 11 23 May 21:38:39 21:42:31 33° 71° (ENE) 21:46:25 145.825 FM, Beacon 2401.500 USB
UOSAT-12 23 May 22:12:08 22:14:14 13° 252° (WSW) 22:16:21 437.025 FM, 437.400 FM
OPAL 23 May 22:36:22 22:41:34 80° 73° (ENE) 22:46:44 ?
JAS-2 23 May 22:49:39 22:57:03 51° 262° (W) 23:04:40 435.800 - 435.900 CW/SSB, 435.910 FM
RS-15 23 May 22:52:32 22:59:55 19° 20° (NNE) 23:07:07 29.354 - 29.394 USB, Beacon 29.352 USB
KITSAT 1 23 May 23:05:14 23:13:15 76° 115° (ESE) 23:21:20 435.175 FM
Oscar 11 23 May 23:15:47 23:18:49 19° 266° (W) 23:21:52 145.825 FM, Beacon 2401.500 USB
HO-68 23 May 23:19:42 23:24:43 20° 267° (W) 23:29:47 435.675 MHz FM
OPAL 24 May 00:19:46 00:20:57 11° 268° (W) 00:22:09 ?
KITSAT 1 24 May 01:02:54 01:09:26 26° 316° (NW) 01:16:02 435.175 FM
RS-15 24 May 01:05:02 01:15:51 52° 50° (NE) 01:26:21 29.354 - 29.394 USB, Beacon 29.352 USB
MaSat-1 24 May 01:26:11 01:33:08 52° 110° (ESE) 01:38:57 437.345 MHz
Uribyol 2 24 May 02:13:22 02:17:25 22° 94° (E) 02:21:27 436.500 FM
Oscar 19 24 May 02:13:39 02:17:55 26° 95° (E) 02:22:09 437.125 CW, 437.150 USB
ISS 24 May 02:35:48 02:39:06 81° 320° (NW) 02:42:25 145.800 FM
Oscar 16 24 May 02:52:36 02:57:48 76° 103° (ESE) 03:02:56 437.025 USB, Beacon 2401.1428
AO-27 24 May 03:04:50 03:10:04 71° 102° (ESE) 03:15:16 436.795 MHz FM
MaSat-1 24 May 03:09:36 03:15:23 28° 301° (WNW) 03:20:19 437.345 MHz
ITAMSAT 1 24 May 03:11:07 03:16:22 80° 103° (ESE) 03:21:36 435.822 SSB
RS-15 24 May 03:17:52 03:27:54 43° 252° (WSW) 03:37:50 29.354 - 29.394 USB, Beacon 29.352 USB
Gurwin Techsat 1B 24 May 03:38:34 03:41:56 17° 92° (E) 03:45:17 435.225 FM
Uosat F 24 May 03:39:42 03:43:22 20° 94° (E) 03:47:01 435.120 FM
AO-Echo 24 May 03:44:39 03:49:21 57° 101° (E) 03:54:10 ?
Uribyol 2 24 May 03:52:09 03:57:01 40° 290° (WNW) 04:01:51 436.500 FM
Oscar 19 24 May 03:52:40 03:57:17 34° 291° (WNW) 04:01:52 437.125 CW, 437.150 USB
ISS 24 May 04:14:20 04:16:15 14° 338° (NNW) 04:18:12 145.800 FM
Saudisat 1A 24 May 04:23:37 04:25:29 12° 107° (ESE) 04:27:22 436.775 MHz
Oscar 16 24 May 04:34:17 04:36:29 13° 299° (WNW) 04:38:40 437.025 USB, Beacon 2401.1428
AO-27 24 May 04:46:23 04:48:57 14° 298° (WNW) 04:51:32 436.795 MHz FM
ITAMSAT 1 24 May 04:53:05 04:55:10 12° 299° (WNW) 04:57:14 435.822 SSB
TMSAT-1 24 May 04:54:11 04:59:27 61° 101° (E) 05:04:41 436.925 FM
AO-7 24 May 05:00:09 05:06:48 26° 95° (E) 05:13:23 29.400 - 29.500 MHz
Gurwin Techsat 1B 24 May 05:17:02 05:22:13 54° 287° (WNW) 05:27:22 435.225 FM
Uosat F 24 May 05:17:36 05:22:19 42° 289° (WNW) 05:27:02 435.120 FM
AO-Echo 24 May 05:25:09 05:27:42 15° 296° (WNW) 05:30:17 ?

Developed and maintained by Chris Peat, Heavens-Above GmbH. Please read the updated FAQ before sending e-mail. Imprint. DLR
